560  
ASUS44 KLUB 010210  
RWRTX  
WEST TEXAS WEATHER ROUNDUP  
NATIONAL WEATHER SERVICE LUBBOCK TX  
900 PM CDT SUN APR 30 2017  
 
NOTE: "FAIR" INDICATES FEW OR NO CLOUDS BELOW 12,000 FEET WITH NO  
SIGNIFICANT WEATHER AND/OR S TO VISIBILITY
.  
 
TXZ004-006>008-010-012-014-016-OKZ002-010300-  
TEXAS PANHANDLE/OKLAHOMA PANHANDLE  
 
CITY SKY/WX TMP DP RH WIND PRES REMARKS
 
AMARILLO CLEAR 50 26 39 W16 29.87R  
BORGER CLEAR 43 33 68 W3 29.87R  
CANADIAN PTCLDY 40 35 81 NW14 29.84R WCI 33  
DALHART CLEAR 45 33 63 W12 29.87R  
HEREFORD CLEAR 49 39 67 CALM 29.91R  
PAMPA CLEAR 37 32 82 N9 29.86R WCI 30  
PERRYTON CLOUDY 38 34 85 W13 29.83R WCI 30  

 
 
TXZ026-029-035-045-048-010300-  
SOUTHERN PANHANDLE/SOUTH PLAINS/ROLLING PLAINS  
 
CITY SKY/WX TMP DP RH WIND PRES REMARKS
 
CHILDRESS PTCLDY 46 36 68 CALM 29.88R  
SEMINOLE CLEAR 59 29 32 SW6 29.93R  
LUBBOCK PTCLDY 56 30 37 W6 29.90S  
PLAINVIEW CLEAR 50 32 50 CALM 29.89S  
SNYDER CLEAR N/A N/A N/A SW3 29.93S  

 
 
TXZ052-054-060>062-072-078-127-140-154-169-010300-  
PERMIAN BASIN/CONCHO VALLEY/BIG COUNTRY/EDWARDS PLATEAU  
 
CITY SKY/WX TMP DP RH WIND PRES REMARKS
 
ABILENE CLEAR 60 23 24 NW3 29.92R  
BIG SPRING CLEAR 62 32 33 NE6 29.94R  
BROWNWOOD CLEAR 61 32 33 W5 29.93R  
JUNCTION CLEAR 67 28 23 N6 29.92R  
MIDLAND CLEAR 64 29 26 W6 29.92R  
ODESSA CLEAR 66 27 23 W5 29.94R  
SAN ANGELO CLEAR 62 33 33 N6 29.92R  
SONORA CLEAR 66 28 24 CALM 29.97R  
SWEETWATER CLEAR 59 28 30 SW7 29.95S  
WINK CLEAR 67 22 18 NW8 29.91R  

 
 
TXZ055-058-074-075-080-082-010300-  
FAR WEST/SOUTHWEST MOUNTAINS/TRANS PECOS  
 
CITY SKY/WX TMP DP RH WIND PRES REMARKS
 
ALPINE CLEAR 63 6 10 W8 30.08R  
DRYDEN N/A 71 14 11 N6 29.90R  
EL PASO PTCLDY 72 8 8 SW14 29.94S  
FORT STOCKTON CLEAR 67 14 13 W7 29.94R  
GUADALUPE PASS CLEAR 59 17 19 W20 30.01R  
MARFA CLEAR 58 7 13 W6 30.06R  
PECOS CLEAR 64 17 16 W8 29.92R  
PRESIDIO FAIR 74 7 7 NW12 29.97R  

 
 
TXZ014-016-019-021>030-083-010300  
TEXAS TECH WEST TEXAS MESONET/TEXAS PANHANDLE/NORTHERN SOUTH PLAINS  
 
CITY SKY/WX TMP DP RH WIND PRES REMARKS
 
ABERNATHY 5ENE N/A 54 32 43 NW1 29.91S  
AMARILLO 9NNE N/A 50 29 44 W10 29.87R  
AMARILLO 7SSE N/A 47 29 48 W9 29.90R  
AMHERST 1NE N/A 56 29 35 SW2 29.90S  
BOOTLEG 11WNW N/A 45 33 62 NE8 29.92R  
CANADIAN 6E N/A 38 33 82 W12 29.82R WCI 31  
CAPROCK CYN SP N/A 47 29 49 W7 29.89S  
CHILDRESS 2NNE N/A 44 33 64 NW3 29.88R  
CLARENDON 2WSW N/A 40 33 74 NE2 29.87R  
CLAUDE 12SW N/A 48 28 46 W12 29.87S  
DIMMITT 2NE N/A 47 37 69 N6 29.91R  
FLOYDADA 2NNE N/A 46 29 51 W6 29.90S  
FRIONA 2NE N/A 48 37 65 E8 29.90S  
GOODLETT 3W N/A 45 34 65 N2 29.88R  
HART 3N N/A 48 34 58 N3 29.90S  
HEREFORD 2NW N/A 46 36 67 NE1 29.90R  
MCLEAN 1E N/A 40 31 70 NW13 29.84R WCI 32  
MEMPHIS 1NE N/A 41 35 80 NW3 29.88R  
MULESHOE 2SSW N/A 50 38 62 S8 29.88F  
OLTON 6S N/A 54 31 42 S2 29.89F  
PALO DURO SP N/A 49 30 47 W10 29.90R  
PAMPA 2E N/A 35 31 84 NW9 29.85R WCI 28  
PLAINVIEW 1S N/A 51 35 55 CALM 29.90R  
SILVERTON 7ESE N/A 42 30 62 W9 29.90R  
TULIA 2ENE N/A 46 35 64 W6 29.90S  
TURKEY 2WSW N/A 50 30 45 W8 29.87S  
UMBARGER 3NNE N/A 44 35 70 NW6 29.90F  

 
 
TXZ033>036-039>041-045>048-010300  
TEXAS TECH WEST TEXAS MESONET/SOUTH PLAINS  
 
CITY SKY/WX TMP DP RH WIND PRES REMARKS
 
AIKEN 3WSW N/A 49 32 52 NW7 29.92R  
ANDREWS 2NE N/A 62 22 21 SW6 29.93R  
ANTON 6SSW N/A 57 33 40 W1 29.91R  
BROWNFIELD 2S N/A 60 35 39 N1 29.91R  
DENVR CTY 7WNW N/A 58 29 33 W7 29.92R  
GAIL 2ESE N/A 57 31 38 CALM 29.91R  
LAMESA 2SE N/A 56 35 44 E2 29.93R  
LEVELLAND 4S N/A 57 31 37 S1 29.91S  
LUBBOCK 3WNW N/A 54 30 40 SW2 29.91S  
MORTON 1ENE N/A 58 31 34 S2 29.90S  
ODONNELL 1N N/A 57 30 36 SE5 29.92R  
PLAINS 3N N/A 58 26 29 SW3 29.92R  
RALLS 1SE N/A 54 27 35 N5 29.91S  
REESE CENTER N/A 56 28 33 W2 29.91R  
SEAGRAVES 1SW N/A 59 33 37 E2 29.91R  
SEMINOLE 2NNE N/A 60 29 30 W3 29.92R  
SLATON 2NE N/A 56 26 31 W6 29.91S  
SNYDER 3E N/A 57 28 33 N8 29.92R  
SUNDOWN 8SW N/A 56 31 38 E3 29.92R  
TAHOKA 3NNE N/A 56 30 37 SW2 29.91S  
WOLFFORTH 6SSW N/A 57 33 40 NW3 29.91S  

 
 
TXZ031-032-036>038-042>044-010300-  
TEXAS TECH WEST TEXAS MESONET/ROLLING PLAINS  
 
CITY SKY/WX TMP DP RH WIND PRES REMARKS
 
ASPERMONT 3NE N/A 54 27 35 NW5 29.91R  
FLUVANNA 3WNW N/A 57 25 28 NW3 29.92R  
GRAHAM 5SSW N/A 60 25 26 SW1 29.92R  
GUTHRIE 10WSW N/A 55 22 28 NW7 29.90R  
HASKELL 1NW N/A 52 24 34 N8 29.91R  
JAYTON 1SSE N/A 55 24 30 NW6 29.91R  
KNOX CITY 3NW N/A 49 38 66 CALM 29.92R  
LK A HENRY 1NW N/A 54 29 38 W1 29.91R  
NORTHFIELD 1S N/A 49 28 44 W8 29.88R  
ODELL 4ENE N/A 46 35 65 NW8 29.89R  
PADUCAH 10SW N/A 48 31 52 W6 29.89S  
POST 1NE N/A 59 25 27 W3 29.90S  
RRING SPRGS 3N N/A 49 28 44 NW8 29.90R  
SEYMOUR 3NW N/A 49 34 56 NW6 29.91R  
SPUR 1W N/A 54 24 31 W2 29.90R  
WEINERT 2NNE N/A 51 32 48 N3 29.92R  
WHITE RVR 6NE N/A 53 25 33 NW6 29.91R  

 
 
TXZ052-054-060>062-072-078-127-140-154-169-010300-  
TEXAS TECH WEST TEXAS MESONET/PERMIAN BASIN/  
CONCHO VALLEY/BIG COUNTRY/EDWARDS PLATEAU  
 
CITY SKY/WX TMP DP RH WIND PRES REMARKS
 
COYANOSA 2N N/A 66 15 14 NW7 29.93R  
JUNCTION 1SSW N/A 60 31 33 CALM 29.93R  
MERTZON 3NNE N/A 57 31 36 CALM 29.94R  
SAN ANGELO 7NW N/A 62 30 30 NE2 29.92R  
STRLNG CT 4WSW N/A 54 33 45 S1 29.93R  
ST LAWRNCE 5SW N/A 62 25 24 W8 29.93S  
SWEETWATR 11SW N/A 58 32 37 NW5 29.95R  
WALL 1E N/A 63 32 31 N6 29.94R  

 
 
TXZ055-058-074-075-080-082-010300-  
TEXAS TECH WEST TEXAS MESONET/FAR WEST/SOUTHWEST MOUNTAINS/TRANS PECOS  
 
CITY SKY/WX TMP DP RH WIND PRES REMARKS
 
PRSMN GAP BBNP N/A 74 2 6 N3 29.94R  
GUADLPE MTN NP N/A 60 10 14 W20 30.01S  

 
 
 
CLICK HERE TO GO TO PREVIOUS BULLETINS.

The Nexlab TX Page Main Text Page